Regional Weather Roundup
Issued by NWS Newport/Morehead, NC

Current Version | Previous Version | Text Only | Print | Product List | Glossary On
Versions: 1 2 3 4 5 6 7 8 9 10 11 12 13 14 15 16 17 18 19 20 21 22 23 24 25 26 27 28 29 30 31 32 33 34 35 36 37 38 39 40 41 42 43 44 45 46 47 48 49 50
000
ASUS42 KMHX 211913
RWRMHX
WEATHER ROUNDUP FOR EASTERN NORTH CAROLINA
NATIONAL WEATHER SERVICE NEWPORT/MOREHEAD CITY NC
200 PM EST SAT JAN 21 2017

NOTE: "FAIR" INDICATES FEW OR NO CLOUDS BELOW 12,000 FEET
WITH NO SIGNIFICANT WEATHER AND/OR OBSTRUCTIONS TO VISIBILITY

NCZ015>017-031-032-045>047-102-103-212000-
NORTH COAST

CITY           SKY/WX    TMP DP  RH WIND       PRES   REMARKS
EDENTON        CLOUDY    55  52  90 CALM      29.87R
ELIZABETH CITY FOG       50  49  96 E6        29.86F VSB 1/4
KITTY HAWK     NOT AVBL
MANTEO         FOG       50  50 100 W3        29.86F VSB 1/2

$$

NCZ045>047-081-094-103-104-212000-
CENTRAL COAST

CITY           SKY/WX    TMP DP  RH WIND       PRES   REMARKS
FRISCO         CLOUDY    61  56  83 CALM      29.84F

$$

NCZ095-097-098-100-101-212000-
SOUTHERN COAST

CITY           SKY/WX    TMP DP  RH WIND       PRES   REMARKS
BEAUFORT       CLOUDY    66  61  84 SE6       29.83F
CEDAR ISLAND   NOT AVBL
JACKSONVILLE   NOT AVBL
PINEY ISLAND   CLOUDY   N/A N/A N/A NE5       29.84F
WILMINGTON     CLOUDY    67  63  87 SE5       29.82F


$$

NCZ011>013-027>030-043-044-078>080-089-090>093-098-212000-
COASTAL PLAIN

CITY           SKY/WX    TMP DP  RH WIND       PRES   REMARKS
AHOSKIE        DRIZZLE   51  50  97 CALM      29.86F
CLINTON        CLOUDY    59  59 100 CALM      29.82F FOG
ELIZABETHTOWN  LGT RAIN  66  60  79 CALM      29.80F
GOLDSBORO      CLOUDY    56  56 100 E3        29.81F FOG
GREENVILLE     CLOUDY    57  54  88 CALM      29.86F
HAVELOCK       CLOUDY    62  57  83 E8        29.84F
KENANSVILLE    PTSUNNY   61  57  88 SE6       29.82F
KINSTON        CLOUDY    57  57 100 SE3       29.84F FOG
NEW BERN       CLOUDY    55  50  83 E5        29.84F
RICHLANDS      CLOUDY    60  57  89 CALM      29.83F
ROCKY MOUNT    FOG       53  53 100 SE3       29.84F VSB 1
WASHINGTON     CLOUDY    58  52  80 SE3         N/A
WHITEVILLE     LGT RAIN  67  63  87 E6        29.78F

$$

AMZ130-135-150-152-154-156-158-170-250-252-270-ANZ085-086-088-633-658-670-212000-
MARINE OBSERVATIONS

STATION/POSITION TIME  TEMP    WIND        PRES    WAVE   SWELL
                       AIR SEA DIR/SP/G            HT/PER HT/PER
                 (UTC) (F)     (DEG/KT/KT) (MB)    (FT/S) (FT/S)
CHESAPEAKE LIGHT NOT AVBL
64 E VA BEACH    1850   56 56  270/  6/  6 1011.0    3/11   3/11
DUCK             1848   50 45  120/  4/  4   N/A
2 E DUCK         1830      47                N/A     3/12   2/12
OREGON INLET     1836   54 49   CALM  /  2   N/A
13E OREGON INLT  NOT AVBL
HATTERAS CG      1848      55  360/  5/  6   N/A
DIAMOND BUOY     1850   68 75  140/ 10/ 10 1010.1    4/11   3/11
CAPE LOOKOUT     1800   64      80/  1/  2 1010.9
BEAUFORT LAB     1848      51  120/  4/  5   N/A
30 SE NEW RVR IN 1808   64 64  170/ 10/ 12 1010.5
30 SE NEW RVR IN 1843      64                N/A     3/13   2/13
27 SE WRIGHTSVLE 1808   69 72  160/ 14/ 19 1009.4
5 SE WRIGHTSVLE  1808   61     270/  6/  8 1010.1
225 S CAPE HAT   1850   71 71  160/  6/  8 1012.2    5/12   5/12
41 SE CHARLESTON 1850   69 67  190/  6/  8 1009.2    2/ 9   2/ 9

$$




USA.gov is the U.S. government's official web portal to all federal, state and local government web resources and services.